This is the latest recevied weather packets stored in our database for station/object DL9GRB-13. If no packets are shown the sender has not sent any weather packets the latest 1 day(s).
| Time | Temp. | Humidity | Pressure | Rain* | Wind** | Luminosity | Snow |
|---|---|---|---|---|---|---|---|
| 1836274730 | 14.44° C | 92% | 1014.2 hPa | 0 mm | 0 m/s | 0 W/m² | - |
| 1836274550 | 14.44° C | 93% | 1014 hPa | 0 mm | 3.13 m/s, 182° | 0 W/m² | - |
| 1836274520 | 15° C | 91% | 1013.9 hPa | 0.51 mm | 3.58 m/s, 133° | 0 W/m² | - |
| 1836274370 | 14.44° C | 93% | 1014.1 hPa | 0 mm | 0 m/s | 0 W/m² | - |
| 1836274340 | 15° C | 91% | 1014 hPa | 0.51 mm | 0 m/s | 0 W/m² | - |
| 1836274190 | 14.44° C | 94% | 1013.8 hPa | 0.51 mm | 2.68 m/s, 201° | 0 W/m² | - |
| 1836274160 | 15° C | 92% | 1013.9 hPa | 0.51 mm | 3.58 m/s, 180° | 0 W/m² | - |
| 1836274010 | 14.44° C | 94% | 1014 hPa | 0.51 mm | 2.24 m/s, 160° | 0 W/m² | - |
| 1778017748 | 7.22° C | 84% | 1009.2 hPa | 0 mm | 2.24 m/s, 54° | 0 W/m² | - |
| 1778017568 | 7.22° C | 84% | 1009.1 hPa | 0 mm | 2.24 m/s, 59° | 0 W/m² | - |
| 1778017388 | 7.22° C | 84% | 1009.3 hPa | 0 mm | 2.68 m/s, 88° | 0 W/m² | - |
| 1778017208 | 7.22° C | 84% | 1009.4 hPa | 0 mm | 2.24 m/s, 87° | 0 W/m² | - |
| 1778017028 | 7.22° C | 84% | 1009.2 hPa | 0 mm | 0 m/s | 0 W/m² | - |
| 1778016848 | 7.78° C | 84% | 1009.2 hPa | 0 mm | 0 m/s | 0 W/m² | - |
| 1778016668 | 7.22° C | 85% | 1009.3 hPa | 0 mm | 0 m/s | 0 W/m² | - |
| 1778016488 | 7.22° C | 86% | 1009.2 hPa | 0 mm | 0 m/s | 0 W/m² | - |
| 1778016308 | 7.22° C | 87% | 1009.5 hPa | 0 mm | 2.68 m/s, 65° | 0 W/m² | - |
| 1778016128 | 7.22° C | 87% | 1009.5 hPa | 0 mm | 2.24 m/s, 52° | 0 W/m² | - |
| 1778015948 | 7.22° C | 86% | 1009.6 hPa | 0 mm | 0 m/s | 0 W/m² | - |
| 1778015768 | 7.22° C | 86% | 1009.4 hPa | 0 mm | 0 m/s | 0 W/m² | - |
| 1778015588 | 7.78° C | 86% | 1009.3 hPa | 0 mm | 0 m/s | 0 W/m² | - |
| 1778015408 | 7.78° C | 86% | 1009.4 hPa | 0 mm | 1.79 m/s, 89° | 0 W/m² | - |
| 1778015228 | 7.78° C | 85% | 1009.5 hPa | 0 mm | 3.13 m/s, 85° | 0 W/m² | - |
| 1778015048 | 7.78° C | 85% | 1009.4 hPa | 0 mm | 2.24 m/s, 91° | 0 W/m² | - |
| 1778014868 | 7.78° C | 85% | 1009.5 hPa | 0 mm | 2.24 m/s, 101° | 0 W/m² | - |
* Rain latest hour (hover to see other rain measurements)
** Current wind speed in m/s (hover to see current wind gust speed)